RYR2ML LPPR-LEZL

Flight info

Callsign RYR2ML
Flight time 0h 53m
Altitude 37000
Route PESUL DCT DIGAL DCT LASIB DCT ROSAL M744 SANTA
Aircraft B738/M-SDE2E3FGHIRWXY/LB1

Departure

Time 2026-05-04 14:25
Airport Francisco de Sá Carneiro Airport (LPPR)

Arrival

Time 2026-05-04 15:19
Airport Seville Airport (LEZL)
Time Latitude Longitude Altitude Speed Heading
2026-05-04 13:56 41.23787 -8.67575 223 ft 0 kts 259°
2026-05-04 14:17 41.23795 -8.67531 223 ft 3 kts 256°
2026-05-04 14:17 41.23798 -8.67509 223 ft 3 kts 255°
2026-05-04 14:17 41.23823 -8.67478 222 ft 3 kts 182°
2026-05-04 14:18 41.23836 -8.67479 222 ft 3 kts 171°
2026-05-04 14:21 41.23801 -8.67471 223 ft 8 kts 170°
2026-05-04 14:21 41.23731 -8.67455 227 ft 13 kts 169°
2026-05-04 14:21 41.23640 -8.67476 227 ft 16 kts 232°
2026-05-04 14:21 41.23611 -8.67607 227 ft 8 kts 258°
2026-05-04 14:22 41.23607 -8.67633 227 ft 0 kts 257°
2026-05-04 14:22 41.23604 -8.67652 230 ft 5 kts 257°
2026-05-04 14:22 41.23592 -8.67721 228 ft 10 kts 257°
2026-05-04 14:22 41.23581 -8.67784 228 ft 0 kts 257°
2026-05-04 14:23 41.23571 -8.67777 230 ft 2 kts 121°
2026-05-04 14:23 41.23573 -8.67764 229 ft 1 kts 70°
2026-05-04 14:23 41.23599 -8.67777 229 ft 11 kts 323°
2026-05-04 14:24 41.23661 -8.67824 225 ft 1 kts 347°
2026-05-04 14:24 41.23669 -8.67826 225 ft 0 kts 347°
2026-05-04 14:24 41.23724 -8.67843 223 ft 36 kts 347°
2026-05-04 14:25 41.24247 -8.67979 214 ft 114 kts 348°
2026-05-04 14:25 41.26213 -8.68453 1315 ft 156 kts 345°
2026-05-04 14:25 41.27456 -8.68790 1598 ft 199 kts 346°
2026-05-04 14:26 41.28841 -8.69159 2374 ft 203 kts 346°
2026-05-04 14:26 41.30166 -8.69507 3446 ft 185 kts 346°
2026-05-04 14:26 41.31419 -8.69836 4344 ft 184 kts 345°
2026-05-04 14:26 41.32727 -8.70186 4847 ft 201 kts 345°
2026-05-04 14:27 41.34172 -8.70570 5213 ft 223 kts 346°
2026-05-04 14:27 41.35768 -8.70995 5533 ft 246 kts 346°
2026-05-04 14:27 41.37503 -8.71454 6135 ft 257 kts 346°
2026-05-04 14:27 41.39282 -8.71870 6913 ft 263 kts 354°
2026-05-04 14:28 41.41100 -8.71410 7623 ft 274 kts 24°
2026-05-04 14:28 41.42589 -8.69777 8340 ft 285 kts 53°
2026-05-04 14:28 41.43319 -8.67308 9110 ft 291 kts 77°
2026-05-04 14:28 41.43691 -8.64656 9958 ft 291 kts 79°
2026-05-04 14:29 41.42850 -8.59555 11163 ft 298 kts 136°
2026-05-04 14:29 41.39258 -8.56403 11759 ft 330 kts 150°
2026-05-04 14:30 41.37243 -8.54721 11931 ft 352 kts 150°
2026-05-04 14:30 41.35139 -8.52916 12313 ft 365 kts 149°
2026-05-04 14:30 41.30861 -8.49159 13539 ft 376 kts 149°
2026-05-04 14:31 41.28668 -8.47214 14123 ft 381 kts 149°
2026-05-04 14:31 41.24220 -8.43263 15342 ft 388 kts 149°
2026-05-04 14:32 41.19681 -8.39237 16505 ft 396 kts 149°
2026-05-04 14:32 41.17376 -8.37196 17094 ft 399 kts 149°
2026-05-04 14:32 41.15056 -8.35143 17657 ft 404 kts 150°
2026-05-04 14:32 41.12702 -8.33063 18221 ft 408 kts 150°
2026-05-04 14:33 41.10330 -8.30968 18730 ft 411 kts 150°
2026-05-04 14:33 41.07937 -8.28856 19226 ft 414 kts 150°
2026-05-04 14:33 41.05527 -8.26731 19728 ft 417 kts 150°
2026-05-04 14:33 41.03106 -8.24598 20209 ft 420 kts 150°
2026-05-04 14:34 41.00660 -8.22445 20685 ft 423 kts 151°
2026-05-04 14:34 40.98227 -8.20304 21172 ft 426 kts 151°
2026-05-04 14:34 40.95751 -8.18127 21639 ft 429 kts 151°
2026-05-04 14:34 40.93252 -8.15935 22088 ft 433 kts 151°
2026-05-04 14:35 40.90708 -8.13779 22547 ft 433 kts 156°
2026-05-04 14:35 40.87969 -8.12169 23019 ft 429 kts 166°
2026-05-04 14:35 40.85099 -8.11157 23479 ft 425 kts 176°
2026-05-04 14:35 40.82161 -8.10733 23854 ft 424 kts 180°
2026-05-04 14:36 40.79213 -8.10073 23999 ft 436 kts 171°
2026-05-04 14:36 40.76279 -8.09008 24035 ft 438 kts 169°
2026-05-04 14:36 40.73354 -8.07879 24040 ft 436 kts 169°
2026-05-04 14:36 40.70450 -8.06742 24041 ft 435 kts 169°
2026-05-04 14:37 40.67537 -8.05609 24054 ft 435 kts 169°
2026-05-04 14:37 40.64618 -8.04489 24260 ft 440 kts 169°
2026-05-04 14:37 40.61673 -8.03372 24669 ft 440 kts 169°
2026-05-04 14:37 40.58727 -8.02262 25059 ft 441 kts 170°
2026-05-04 14:38 40.55803 -8.01167 25410 ft 443 kts 170°
2026-05-04 14:38 40.52875 -8.00069 26105 ft 431 kts 170°
2026-05-04 14:38 40.49989 -7.98989 26528 ft 433 kts 170°
2026-05-04 14:38 40.47056 -7.97903 26593 ft 443 kts 170°
2026-05-04 14:39 40.44059 -7.96797 26736 ft 450 kts 170°
2026-05-04 14:39 40.41037 -7.95679 26995 ft 453 kts 170°
2026-05-04 14:39 40.37989 -7.94550 27246 ft 457 kts 170°
2026-05-04 14:40 40.31833 -7.92268 27851 ft 461 kts 170°
2026-05-04 14:40 40.28740 -7.91123 28128 ft 464 kts 170°
2026-05-04 14:40 40.25625 -7.89970 28379 ft 466 kts 171°
2026-05-04 14:40 40.22490 -7.88812 28671 ft 468 kts 171°
2026-05-04 14:41 40.19346 -7.87652 28951 ft 470 kts 171°
2026-05-04 14:41 40.16186 -7.86486 29211 ft 472 kts 171°
2026-05-04 14:41 40.09830 -7.84148 29712 ft 476 kts 171°
2026-05-04 14:42 40.03461 -7.81808 30338 ft 475 kts 171°
2026-05-04 14:42 40.00282 -7.80641 30672 ft 474 kts 171°
2026-05-04 14:42 39.97107 -7.79477 30931 ft 474 kts 171°
2026-05-04 14:43 39.95003 -7.78706 31111 ft 474 kts 171°
2026-05-04 14:43 39.91820 -7.77542 31357 ft 474 kts 171°
2026-05-04 14:43 39.88650 -7.76384 31625 ft 473 kts 171°
2026-05-04 14:43 39.85483 -7.75228 31890 ft 472 kts 171°
2026-05-04 14:44 39.81293 -7.73700 32200 ft 472 kts 171°
2026-05-04 14:44 39.78128 -7.72548 32492 ft 472 kts 171°
2026-05-04 14:44 39.75990 -7.71770 32691 ft 471 kts 171°
2026-05-04 14:44 39.72835 -7.70622 32941 ft 471 kts 171°
2026-05-04 14:45 39.69710 -7.69487 33205 ft 471 kts 172°
2026-05-04 14:45 39.66559 -7.68344 33464 ft 470 kts 171°
2026-05-04 14:45 39.63411 -7.67202 33665 ft 470 kts 172°
2026-05-04 14:45 39.60255 -7.66060 33867 ft 471 kts 172°
2026-05-04 14:46 39.57106 -7.64921 34153 ft 469 kts 172°
2026-05-04 14:46 39.53966 -7.63784 34349 ft 469 kts 171°
2026-05-04 14:46 39.50826 -7.62649 34554 ft 468 kts 171°
2026-05-04 14:46 39.47690 -7.61517 34732 ft 468 kts 171°
2026-05-04 14:47 39.44557 -7.60387 34943 ft 467 kts 171°
2026-05-04 14:47 39.41425 -7.59259 35127 ft 467 kts 171°
2026-05-04 14:47 39.38293 -7.58132 35314 ft 466 kts 171°
2026-05-04 14:47 39.35164 -7.57006 35534 ft 466 kts 171°
2026-05-04 14:48 39.32043 -7.55885 35723 ft 465 kts 171°
2026-05-04 14:48 39.28924 -7.54766 35917 ft 465 kts 171°
2026-05-04 14:48 39.25808 -7.53649 36121 ft 464 kts 171°
2026-05-04 14:48 39.22697 -7.52534 36300 ft 463 kts 171°
2026-05-04 14:49 39.19591 -7.51423 36475 ft 463 kts 171°
2026-05-04 14:49 39.16490 -7.50314 36650 ft 462 kts 171°
2026-05-04 14:49 39.13400 -7.49210 36818 ft 462 kts 171°
2026-05-04 14:49 39.10298 -7.48103 36965 ft 461 kts 171°
2026-05-04 14:50 39.04138 -7.45910 37008 ft 463 kts 171°
2026-05-04 14:50 38.98041 -7.43730 36991 ft 441 kts 171°
2026-05-04 14:51 38.95132 -7.42687 36989 ft 427 kts 172°
2026-05-04 14:51 38.92314 -7.41680 36921 ft 415 kts 172°
2026-05-04 14:51 38.89541 -7.40696 36522 ft 413 kts 172°
2026-05-04 14:51 38.86725 -7.39711 35471 ft 427 kts 172°
2026-05-04 14:52 38.83803 -7.38696 34370 ft 444 kts 172°
2026-05-04 14:52 38.80779 -7.37639 33420 ft 454 kts 172°
2026-05-04 14:52 38.77718 -7.36558 32771 ft 456 kts 171°
2026-05-04 14:52 38.74667 -7.35474 32241 ft 454 kts 171°
2026-05-04 14:53 38.71637 -7.34397 31780 ft 450 kts 171°
2026-05-04 14:53 38.68666 -7.33343 31355 ft 447 kts 171°
2026-05-04 14:53 38.65685 -7.32288 30913 ft 444 kts 171°
2026-05-04 14:53 38.62713 -7.31240 30465 ft 441 kts 171°
2026-05-04 14:54 38.59760 -7.30202 30050 ft 438 kts 171°
2026-05-04 14:54 38.56835 -7.29174 29578 ft 435 kts 172°
2026-05-04 14:54 38.53930 -7.28154 29092 ft 431 kts 171°
2026-05-04 14:54 38.51046 -7.27142 28618 ft 428 kts 171°
2026-05-04 14:55 38.48188 -7.26141 28156 ft 425 kts 171°
2026-05-04 14:55 38.45344 -7.25146 27700 ft 422 kts 171°
2026-05-04 14:55 38.42519 -7.24157 27253 ft 419 kts 171°
2026-05-04 14:55 38.39716 -7.23178 26803 ft 417 kts 171°
2026-05-04 14:56 38.36928 -7.22204 26386 ft 414 kts 171°
2026-05-04 14:56 38.34160 -7.21238 25960 ft 411 kts 171°
2026-05-04 14:56 38.31410 -7.20279 25536 ft 409 kts 171°
2026-05-04 14:56 38.28673 -7.19325 25152 ft 406 kts 171°
2026-05-04 14:57 38.25989 -7.18387 25080 ft 395 kts 171°
2026-05-04 14:57 38.23369 -7.17472 25012 ft 384 kts 171°
2026-05-04 14:57 38.20835 -7.16588 25002 ft 371 kts 172°
2026-05-04 14:57 38.18384 -7.15735 24905 ft 361 kts 172°
2026-05-04 14:58 38.15981 -7.14904 24666 ft 356 kts 172°
2026-05-04 14:58 38.13593 -7.14081 24322 ft 355 kts 172°
2026-05-04 14:58 38.11207 -7.13256 23921 ft 356 kts 172°
2026-05-04 14:58 38.08767 -7.12417 22830 ft 373 kts 171°
2026-05-04 14:59 38.06196 -7.11535 21400 ft 392 kts 171°
2026-05-04 14:59 38.03579 -7.10318 20266 ft 419 kts 155°
2026-05-04 14:59 37.99639 -7.04809 19208 ft 432 kts 120°
2026-05-04 15:00 37.98237 -7.01456 18773 ft 429 kts 120°
2026-05-04 15:00 37.96845 -6.98131 18326 ft 425 kts 120°
2026-05-04 15:00 37.95451 -6.94844 17847 ft 422 kts 121°
2026-05-04 15:01 37.92665 -6.88377 16933 ft 414 kts 121°
2026-05-04 15:01 37.91279 -6.85194 16491 ft 410 kts 121°
2026-05-04 15:01 37.89902 -6.82044 16056 ft 407 kts 121°
2026-05-04 15:01 37.88537 -6.78927 15631 ft 404 kts 121°
2026-05-04 15:02 37.87180 -6.75836 15209 ft 400 kts 121°
2026-05-04 15:02 37.85834 -6.72770 14801 ft 397 kts 121°
2026-05-04 15:02 37.84494 -6.69723 14392 ft 394 kts 121°
2026-05-04 15:02 37.83168 -6.66709 13989 ft 390 kts 121°
2026-05-04 15:03 37.81851 -6.63716 13562 ft 387 kts 121°
2026-05-04 15:03 37.80543 -6.60748 13119 ft 384 kts 121°
2026-05-04 15:03 37.79244 -6.57801 12657 ft 382 kts 121°
2026-05-04 15:03 37.77953 -6.54878 12233 ft 379 kts 121°
2026-05-04 15:04 37.76673 -6.51980 11812 ft 376 kts 121°
2026-05-04 15:04 37.75417 -6.49142 11398 ft 373 kts 121°
2026-05-04 15:04 37.74136 -6.46247 10994 ft 371 kts 121°
2026-05-04 15:04 37.72896 -6.43453 10614 ft 369 kts 121°
2026-05-04 15:05 37.71633 -6.40603 10220 ft 366 kts 121°
2026-05-04 15:05 37.70392 -6.37800 9790 ft 364 kts 121°
2026-05-04 15:05 37.69176 -6.35059 9424 ft 361 kts 121°
2026-05-04 15:05 37.67949 -6.32303 8986 ft 359 kts 121°
2026-05-04 15:06 37.66729 -6.29561 8568 ft 356 kts 121°
2026-05-04 15:06 37.65520 -6.26852 8176 ft 353 kts 121°
2026-05-04 15:06 37.64317 -6.24162 7771 ft 351 kts 120°
2026-05-04 15:07 37.61925 -6.18824 6960 ft 348 kts 120°
2026-05-04 15:07 37.60740 -6.16175 6558 ft 345 kts 119°
2026-05-04 15:07 37.59566 -6.13549 6160 ft 343 kts 119°
2026-05-04 15:07 37.58395 -6.10933 5789 ft 342 kts 120°
2026-05-04 15:08 37.57228 -6.08318 5340 ft 341 kts 119°
2026-05-04 15:08 37.56069 -6.05728 4947 ft 338 kts 120°
2026-05-04 15:08 37.54930 -6.03198 4621 ft 335 kts 120°
2026-05-04 15:08 37.53782 -6.00649 4155 ft 336 kts 120°
2026-05-04 15:09 37.52631 -5.98089 3784 ft 335 kts 120°
2026-05-04 15:09 37.51491 -5.95554 3512 ft 327 kts 120°
2026-05-04 15:09 37.50395 -5.93118 3337 ft 311 kts 120°
2026-05-04 15:10 37.48339 -5.88568 2959 ft 288 kts 120°
2026-05-04 15:10 37.47367 -5.86416 2777 ft 277 kts 120°
2026-05-04 15:10 37.45520 -5.82322 2432 ft 262 kts 120°
2026-05-04 15:11 37.44623 -5.80338 2166 ft 259 kts 121°
2026-05-04 15:11 37.43873 -5.78327 2013 ft 250 kts 110°
2026-05-04 15:11 37.43491 -5.76236 1922 ft 240 kts 89°
2026-05-04 15:11 37.43631 -5.74167 1933 ft 233 kts 82°
2026-05-04 15:12 37.43856 -5.72190 1984 ft 225 kts 81°
2026-05-04 15:12 37.44078 -5.70273 1958 ft 214 kts 81°
2026-05-04 15:12 37.44295 -5.68471 1958 ft 205 kts 81°
2026-05-04 15:12 37.44514 -5.66705 1799 ft 199 kts 81°
2026-05-04 15:13 37.44665 -5.65040 1758 ft 187 kts 91°
2026-05-04 15:13 37.44504 -5.63405 1973 ft 196 kts 106°
2026-05-04 15:13 37.43956 -5.61788 2510 ft 206 kts 130°
2026-05-04 15:13 37.42831 -5.60708 2922 ft 208 kts 163°
2026-05-04 15:14 37.41451 -5.60561 2778 ft 197 kts 198°
2026-05-04 15:14 37.40356 -5.61430 2714 ft 184 kts 237°
2026-05-04 15:14 37.39974 -5.62904 2585 ft 173 kts 273°
2026-05-04 15:14 37.40381 -5.64300 2258 ft 170 kts 299°
2026-05-04 15:15 37.40997 -5.65530 2022 ft 166 kts 301°
2026-05-04 15:15 37.41538 -5.66775 1952 ft 162 kts 281°
2026-05-04 15:15 37.41726 -5.68196 1986 ft 169 kts 276°
2026-05-04 15:16 37.41865 -5.71287 2209 ft 184 kts 270°
2026-05-04 15:16 37.41864 -5.72914 2208 ft 184 kts 269°
2026-05-04 15:16 37.41848 -5.76076 1888 ft 180 kts 269°
2026-05-04 15:17 37.41837 -5.77601 1717 ft 164 kts 269°
2026-05-04 15:17 37.41829 -5.80380 1261 ft 160 kts 270°
2026-05-04 15:17 37.41823 -5.81757 1029 ft 154 kts 270°
2026-05-04 15:18 37.41817 -5.83096 843 ft 155 kts 269°
2026-05-04 15:18 37.41812 -5.84485 635 ft 162 kts 270°
2026-05-04 15:18 37.41806 -5.85914 375 ft 161 kts 269°
2026-05-04 15:19 37.41788 -5.88572 113 ft 126 kts 273°
2026-05-04 15:19 37.41799 -5.89108 105 ft 33 kts 273°
2026-05-04 15:19 37.42043 -5.89428 99 ft 15 kts 312°
2026-05-04 15:20 37.42112 -5.89522 99 ft 14 kts 313°
2026-05-04 15:20 37.42178 -5.89611 98 ft 14 kts 314°
2026-05-04 15:20 37.42246 -5.89689 99 ft 13 kts 321°
2026-05-04 15:20 37.42318 -5.89756 97 ft 13 kts 325°
2026-05-04 15:21 37.42350 -5.89794 96 ft 0 kts 311°
2026-05-04 15:22 37.42352 -5.89797 96 ft 1 kts 311°
2026-05-04 15:23 37.42352 -5.89798 96 ft 0 kts 311°
2026-05-04 15:23 37.42353 -5.89798 96 ft 0 kts 311°